Parkersburg, WV

7:04 AM EDT on October 21, 2019 (GMT -0400)
Wood County Wilson

Weather History for KPKB - August, 2019

Change the Weather History Date:

Thursday, August 1, 2019

  Actual Average Record
Temperature  
Mean Temperature 77 °F 74 °F  
Max Temperature 88 °F 85 °F 96 °F (2002)
Min Temperature 65 °F 64 °F 52 °F (1990)
Degree Days  
Heating Degree Days 0 0  
Month to date heating degree days 0 0  
Since 1 June heating degree days 16 20  
Since 1 July heating degree days 0 1  
Cooling Degree Days 12 9  
Month to date cooling degree days 12 9  
Year to date cooling degree days 709 576  
Since 1 June cooling degree days 564 492  
Growing Degree Days 26 (Base 50)    
Moisture  
Dew Point 67 °F    
Average Humidity 74    
Maximum Humidity 97    
Minimum Humidity 51    
Precipitation  
Precipitation 0.01 in 0.13 in 3.52 in (1935)
Month to date precipitation 0.01 0.13  
Year to date precipitation 29.45 25.31  
Sea Level Pressure  
Sea Level Pressure 30.11 in    
Wind  
Wind Speed 2 mph (NNE)    
Max Wind Speed 14 mph    
Max Gust Speed 17 mph    
Visibility 9 miles    
Events Rain , Thunderstorm    
T = Trace of Precipitation, MM = Missing Value Source: NWS Daily Summary

Daily Weather History Graph

Daily Weather History Graph

Search for Another Location

Airport or City:

Astronomy

Aug. 01, 2019 Rise Set
Actual Time 6:25 AM EDT 8:38 PM EDT
Civil Twilight 5:55 AM EDT 9:08 PM EDT
Nautical Twilight 5:18 AM EDT 9:44 PM EDT
Astronomical Twilight 4:38 AM EDT 10:24 PM EDT
Moon 6:48 AM EDT (8/1) 9:24 PM EDT (8/1)
Length of Visible Light 15h 12m
Length of Day
14h 12m
New Moon, 0% of the Moon is Illuminated
Aug 1
New Moon
Aug 7
First Quarter
Aug 15
Full
Aug 23
Last Quarter
Aug 30
New

Hourly Weather History & Observations

Time (EDT) Temp. Heat Index Dew Point Humidity Pressure Visibility Wind Dir Wind Speed Gust Speed Precip Events Conditions
12:53 AM 71.1 °F - 66.9 °F 87% 30.11 in 10.0 mi ENE 3.5 mph - N/A   Clear
1:53 AM 68.0 °F - 66.0 °F 93% 30.10 in 9.0 mi Calm Calm - N/A   Clear
2:53 AM 68.0 °F - 66.0 °F 93% 30.11 in 8.0 mi NNW 3.5 mph - N/A   Clear
3:53 AM 66.9 °F - 64.9 °F 93% 30.11 in 7.0 mi Calm Calm - N/A   Clear
4:53 AM 66.0 °F - 64.0 °F 93% 30.11 in 6.0 mi Calm Calm - N/A   Scattered Clouds
5:53 AM 64.9 °F - 63.0 °F 93% 30.11 in 7.0 mi Calm Calm - N/A   Partly Cloudy
6:53 AM 64.9 °F - 63.0 °F 93% 30.12 in 6.0 mi Calm Calm - N/A   Clear
7:53 AM 69.1 °F - 66.0 °F 90% 30.12 in 7.0 mi Calm Calm - N/A   Clear
8:53 AM 72.0 °F - 66.9 °F 84% 30.14 in 10.0 mi NNW 3.5 mph - N/A   Clear
9:53 AM 75.9 °F - 66.9 °F 74% 30.14 in 10.0 mi NE 5.8 mph - N/A   Clear
10:53 AM 79.0 °F - 68.0 °F 69% 30.15 in 10.0 mi NNE 3.5 mph - N/A   Clear
11:53 AM 82.0 °F 84.9 °F 68.0 °F 62% 30.15 in 10.0 mi Variable 3.5 mph - N/A   Scattered Clouds
12:53 PM 84.0 °F 85.4 °F 64.0 °F 51% 30.14 in 10.0 mi ESE 4.6 mph - N/A   Mostly Cloudy
1:53 PM 84.9 °F 86.6 °F 64.9 °F 51% 30.12 in 10.0 mi NNE 5.8 mph - N/A   Scattered Clouds
2:53 PM 86.0 °F 88.8 °F 66.9 °F 53% 30.11 in 10.0 mi NE 6.9 mph - N/A   Mostly Cloudy
3:11 PM 87.1 °F 89.2 °F 66.0 °F 49% 30.12 in 10.0 mi NE 9.2 mph - N/A Thunderstorm Scattered Clouds
3:30 PM 88.0 °F 90.3 °F 66.0 °F 48% 30.11 in 10.0 mi Variable 6.9 mph - N/A   Mostly Cloudy
3:50 PM 84.2 °F 85.6 °F 64.4 °F 51% 30.11 in 10.0 mi NE 6.9 mph - N/A Thunderstorm Scattered Clouds
3:53 PM 84.0 °F 85.4 °F 64.0 °F 51% 30.08 in 10.0 mi NE 8.1 mph - N/A Thunderstorm Scattered Clouds
4:53 PM 75.9 °F - 69.1 °F 79% 30.10 in 10.0 mi West 4.6 mph - 0.00 in Rain Light Rain
5:53 PM 73.9 °F - 70.0 °F 87% 30.09 in 10.0 mi WNW 3.5 mph - 0.01 in   Clear
6:53 PM 75.0 °F - 70.0 °F 84% 30.09 in 10.0 mi Calm Calm - N/A   Scattered Clouds
7:53 PM 75.0 °F - 70.0 °F 84% 30.08 in 10.0 mi Calm Calm - N/A   Partly Cloudy
8:53 PM 73.9 °F - 71.1 °F 91% 30.09 in 8.0 mi Calm Calm - N/A   Clear
9:53 PM 72.0 °F - 70.0 °F 93% 30.11 in 7.0 mi Calm Calm - N/A   Clear
10:53 PM 73.0 °F - 68.0 °F 84% 30.11 in 10.0 mi Calm Calm - N/A   Scattered Clouds
11:53 PM 70.0 °F - 68.0 °F 93% 30.12 in 9.0 mi Calm Calm - N/A   Partly Cloudy